Location: *
(53.4003°S, 165.3236°W)
Time: 01:31:54
(UTC+00:00)

ALOS - Pass Details

Date: 11 December 2023
Orbit: 675 x 678 km, 98.0° (Epoch: 24 February)

Event Time Altitude Azimuth Distance (km) Brightness Sun altitude
Exits shadow 12:30:53 - 24° (NNE) 2,661 4.9 -10.8°
Reaches altitude 10° 12:32:10 10° 25° (NNE) 2,137 4.4 -10.7°
Maximum altitude 12:36:50 72° 108° (ESE) 733 2.6 -10.4°
Drops below altitude 10° 12:41:33 10° 191° (SSW) 2,161 5.7 -10.2°
Sets 12:43:49 0° 193° (SSW) 3,082 6.5 -10.0°
